Powrót do katalogu

STARLINK-34914

AktywnyŁącznośćVLEO
NORAD 65203·PAYLOAD·🇺🇸 United States

Wystrzelony Aug 14, 2025 z Cape Canaveral Space Force Station

Loading…

Następne Przeloty (najbliższe 24 godziny)

TLE

ŚwieżeSource: CelesTrak SupGP

Epoka: Sep 15, 2026, 04:05 UTC

1 65203C 25176F   26258.17062500  .00065493  00000+0  19352-2 0  2587
2 65203  53.1596 348.4706 0001395  93.3625 107.8130 15.34353864    18

Śledź STARLINK-34914 w czasie rzeczywistym z AllMySat

Download on the App Store